Content
SEND FEEDBACK

Daily
Averages
Monthly
Summary
Canada

AMHERST, NOVA SCOTIA


Home > North America > Canada > Nova Scotia
Elevation: 66 feet     Latitude: 45 46N     Longitude: 064 15W

WEATHER
 
SELECT A DAY
Number of Records: 99,443;   Date Range: 6/19/04 - 10/18/14
 
SHARE

PRINT THIS DATA

[ ← Previous Day ]
WEATHER ALMANAC - MAY 22, 2013
[ Next Day → ]
[ °C ]   °F
Weather ElementAverageHighLow
Temperature50.4 °F55.2 °F (6:00 pm)44.6 °F (3:00 am)
Dewpoint45.5 °F47.8 °F (4:00 pm)42.6 °F (3:00 am)
Humidity83.1 %94 % (5:00 am)70 % (6:00 pm)
Barometer30.07 in30.09 in (9:00 am)30.04 in (1:00 am)
Wind Speed6.3 mph9.2 mph (4:00 pm)
Weather ElementAverage
Wind DirectionSSE (168.5 °)

Weather ElementTotal
Precipitation---
Heating Degree Days15.1 (Base 65)
Averaged from 27 records on May 22, 2013
WEATHER CONDITIONS BREAKOUT
WIND DIRECTION BREAKOUT
WEATHER BY HOUR - MAY 22, 2013
[ °C ]   °F
Local TimeTemperatureDewpointHumidityBarometerVisibilityWind DirectionWind SpeedGust SpeedPrecipitationEventsConditions
1:00 AM45.5 °F43.0 °F91 %30.04 inSSE (160°)5.8 mph
2:00 AM45.3 °F42.8 °F91 %30.04 inSouth (170°)6.9 mph
3:00 AM45.0 °F43.0 °F88 %30.05 inSouth (190°)4.6 mph
3:00 AM44.6 °F42.6 °F93 %30.05 inSouth (190°)4.6 mph
4:00 AM45.0 °F43.2 °F93 %30.04 inSouth (180°)8.1 mph
5:00 AM45.3 °F43.7 °F94 %30.04 inSouth (170°)6.9 mph
6:00 AM45.5 °F43.5 °F93 %30.05 inSouth (190°)5.8 mph
7:00 AM47.1 °F45.5 °F94 %30.07 inSSW (200°)4.6 mph
8:00 AM48.7 °F46.9 °F93 %30.08 inSSW (200°)4.6 mph
9:00 AM50.0 °F47.0 °F86 %30.09 inSouth (180°)4.6 mph
9:00 AM49.6 °F47.1 °F91 %30.09 inSouth (180°)4.6 mph
10:00 AM50.4 °F47.5 °F90 %30.08 inSSE (150°)5.8 mph
11:00 AM52.3 °F47.7 °F84 %30.08 inSouth (180°)5.8 mph
12:00 PM52.7 °F46.9 °F81 %30.09 inSSW (210°)5.8 mph
1:00 PM54.3 °F47.3 °F77 %30.09 inSSW (210°)5.8 mph
2:00 PM54.0 °F46.4 °F76 %30.09 inSouth (180°)8.1 mph
3:00 PM54.0 °F47.0 °F72 %30.09 inSSE (160°)6.9 mph
3:00 PM54.1 °F47.5 °F78 %30.09 inSSE (160°)6.9 mph
4:00 PM54.7 °F47.8 °F78 %30.08 inSouth (170°)9.2 mph
5:00 PM54.9 °F46.2 °F73 %30.06 inSSE (150°)8.1 mph
6:00 PM55.2 °F45.5 °F70 %30.04 inSSE (150°)9.2 mph
7:00 PM54.7 °F46.0 °F73 %30.05 inSE (140°)6.9 mph
8:00 PM53.4 °F45.5 °F75 %30.06 inSE (130°)8.1 mph
9:00 PM52.0 °F45.0 °F71 %30.07 inSE (130°)4.6 mph
9:00 PM52.0 °F45.3 °F78 %30.07 inSE (130°)4.6 mph
10:00 PM50.7 °F44.8 °F80 %30.06 inSE (130°)5.8 mph
11:00 PM50.4 °F45.0 °F82 %30.06 inSSE (160°)8.1 mph
Hourly data recorded from CXNP, located miles away from Amherst, Nova Scotia







STORIES FROM OUR PARTNERS